STARLINK-35459, 65856

Orbit data source: Space-Track

STARLINK-35459, 65856 is a payload satellite owned by SpaceX/Seattle (US) in LEO that was launched on Fri, 03 Oct 2025 UTC via an FALCON 9 launch vehicle from the Air Force Western Test Range (AFWTR). Payload-class satellites include a variety of spacecraft equipped with specific instruments for various scientific and technological missions. These include communications satellites like Starlink; space stations such as the ISS; scientific satellites like the Hubble; Earth observation satellites from companies like Planet Labs, Umbra, and HawkEye 360; GPS; miniature CubeSats for education and research; and military/defense satellites.

Loading next visibility...
Identifier
65856, 2025-223C
Orbit
LEO
Country
Flag of USUS
Related business
Manufacturer
SpaceX/Seattle
Mission
Operational spacecraft
Bus & Motor
STARLINK V2MO, Unknown motor
Mass
575 kg wet, ~530 kg dry
Launch date (UTC)
2025-10-03 (2 weeks ago)
Launch vehicle
FALCON 9
Launch site
Air Force Western Test Range (AFWTR)
Object type
Payload
Rocket body
Debris
Shape & HBR
Unknown shape, 17.7 m
Radar Cross Section
RCS unknown

Expand to show TLE details & history
Last TLE update: 10 hours ago

TLE from 10 hours ago
0 STARLINK-35459
1 65856U 25223C   25290.70303848  .03478176  00000-0  20244-1 0  9994
2 65856  53.1526 242.6083 0015016 300.1391  59.8140 15.74221233  2255
Epoch: 2025-10-17T16:52Z
TLE epoch observation values (Epoch: 2025-10-17T16:52:22.524Z)
Latitude
-0.00005°
Longitude
-36.93019°
Altitude
342.698 km
Speed
7.707 km/s
True Right ascension
16h 10m 25s
True Declination
0° 00' 00"
Sunlit
Object was in daylight at epoch
Visualization orbit readout
Latitude
Unknown
Longitude
Unknown
Altitude
Unknown
Speed
Unknown
Apparent Right ascension
Unknown
Apparent Declination
Unknown
Sunlit
N/A
Visualization observer readout
Local Sidereal Time
21:26:17
Azimuth
Unknown
Elevation
Unknown
Doppler factor
Unknown
Orbital elements
Apogee altitude
357.209 km
Perigee altitude
337.012 km
Semi-major axis
6,725.248 km
Eccentricity
0.0015
Inclination
53.1526°
RAAN
242.6083°
Arg. of periapsis
300.1391°
True anomaly
59.96288°
Mean anomaly
59.814°
Eccentric anomaly
59.88842°
Mean motion
3.93533 °/min
Orbital period
91.48 mins
BSTAR
0.020244
Loading maneuver chart data...
Computing Atmospheric mass density...
Loading historical data...
Loading historical data...
Loading historical data...
Loading historical data...
Loading historical data...
Loading historical data...
Loading historical data...

Documentation

Showing up to 5 results
|